Weather History for KY70 - December, 2011

Change the Weather History Date:

Monday, December 12, 2011

  Actual Average (KGRR) Record (KGRR)
Temperature  
Mean Temperature 35 °F 30 °F  
Max Temperature 44 °F 36 °F 60 °F (1991)
Min Temperature 26 °F 25 °F -5 °F (1958)
Degree Days  
Heating Degree Days 30 35  
Month to date heating degree days 397  
Since 1 July heating degree days 1735  
Cooling Degree Days 0 0  
Month to date cooling degree days 0  
Year to date cooling degree days 699  
Moisture  
Dew Point 25 °F    
Average Humidity 70    
Maximum Humidity 83    
Minimum Humidity 51    
Precipitation  
Precipitation 0.00 in 0.08 in 1.36 in (1965)
Month to date precipitation 1.06  
Year to date precipitation 36.83  
Snow  
Snow 0.00 in 0.80 in 6.00 in (1972)
Month to date snowfall 7.2  
Since 1 July snowfall 14.5  
Snow Depth -    
Sea Level Pressure  
Sea Level Pressure 30.37 in    
Wind  
Wind Speed 7 mph (SSW)    
Max Wind Speed 13 mph    
Max Gust Speed -    
Visibility 10 miles    
Events      
T = Trace of Precipitation, MM = Missing Value Source: NWS Daily Summary

Daily Weather History Graph

Daily Weather History Graph

Search for Another Location

Airport or City:

Trip Planner

Search our weather history database for the weather conditions in past years. The results will help you decide how hot, cold, wet, or windy it might be!

Date:

Astronomy

Dec. 12, 2011 Rise Set
Actual Time 8:01 AM EST 5:05 PM EST
Civil Twilight 7:29 AM EST 5:38 PM EST
Nautical Twilight 6:53 AM EST 6:13 PM EST
Astronomical Twilight 6:19 AM EST 6:48 PM EST
Moon 7:17 PM EST (12/12) 9:32 AM EST (12/12)
Length of Visible Light 10h 08m
Length of Day
9h 03m
Waning Gibbous, 96% of the Moon is Illuminated
Dec 12
Waning Gibbous
Dec 17
Last Quarter
Dec 24
New
Jan 1
First Quarter
Jan 9
Full

Hourly Weather History & Observations

Time (EST) Temp. Windchill Dew Point Humidity Pressure Visibility Wind Dir Wind Speed Gust Speed Precip Events Conditions
12:13 AM 29.8 °F 22.2 °F 23.0 °F 76% 30.37 in 10.0 mi SSW 8.1 mph - N/A   Clear
12:33 AM 29.3 °F 21.5 °F 23.0 °F 77% 30.37 in 10.0 mi SSW 8.1 mph - N/A   Clear
12:53 AM 28.8 °F 21.7 °F 22.8 °F 78% 30.37 in 10.0 mi SSW 6.9 mph - N/A   Clear
1:13 AM 28.0 °F 20.0 °F 22.6 °F 80% 30.37 in 10.0 mi South 8.1 mph - N/A   Clear
1:33 AM 27.5 °F 20.2 °F 22.5 °F 81% 30.36 in 10.0 mi SSW 6.9 mph - N/A   Clear
2:13 AM 27.0 °F 21.6 °F 22.1 °F 82% 30.36 in 10.0 mi SSW 4.6 mph - N/A   Clear
2:33 AM 26.6 °F 19.1 °F 22.1 °F 83% 30.37 in 10.0 mi SSW 6.9 mph - N/A   Clear
2:53 AM 27.9 °F 19.8 °F 22.1 °F 79% 30.37 in 10.0 mi SSW 8.1 mph - N/A   Clear
3:13 AM 27.5 °F 19.3 °F 22.1 °F 80% 30.37 in 10.0 mi SSW 8.1 mph - N/A   Clear
3:53 AM 27.9 °F 19.1 °F 21.9 °F 78% 30.37 in 10.0 mi SSW 9.2 mph - N/A   Clear
4:13 AM 27.5 °F 20.2 °F 21.7 °F 79% 30.36 in 10.0 mi SSW 6.9 mph - N/A   Clear
4:33 AM 27.5 °F 19.3 °F 21.9 °F 80% 30.36 in 10.0 mi SSW 8.1 mph - N/A   Clear
4:53 AM 27.5 °F 19.3 °F 21.7 °F 79% 30.36 in 10.0 mi SSW 8.1 mph - N/A   Clear
5:13 AM 27.5 °F 18.6 °F 21.7 °F 79% 30.36 in 10.0 mi SSW 9.2 mph - N/A   Clear
5:33 AM 27.5 °F 19.3 °F 21.6 °F 78% 30.37 in 10.0 mi SSW 8.1 mph - N/A   Clear
5:53 AM 27.5 °F 19.3 °F 21.4 °F 78% 30.37 in 10.0 mi SSW 8.1 mph - N/A   Clear
6:13 AM 27.0 °F 19.5 °F 21.2 °F 79% 30.37 in 10.0 mi SSW 6.9 mph - N/A   Clear
6:33 AM 26.2 °F 20.7 °F 21.0 °F 81% 30.37 in 10.0 mi SSW 4.6 mph - N/A   Clear
6:53 AM 26.1 °F 18.4 °F 20.8 °F 81% 30.38 in 10.0 mi SSW 6.9 mph - N/A   Clear
7:13 AM 26.6 °F 19.1 °F 20.8 °F 79% 30.38 in 10.0 mi SSW 6.9 mph - N/A   Clear
7:33 AM 26.4 °F 20.9 °F 20.7 °F 79% 30.39 in 10.0 mi SSW 4.6 mph - N/A   Clear
7:53 AM 26.1 °F 20.5 °F 20.3 °F 79% 30.39 in 10.0 mi SSW 4.6 mph - N/A   Clear
8:13 AM 26.2 °F 19.6 °F 20.7 °F 79% 30.40 in 7.0 mi SSW 5.8 mph - N/A   Clear
8:33 AM 26.1 °F 20.5 °F 21.0 °F 81% 30.40 in 7.0 mi SSW 4.6 mph - N/A   Clear
8:53 AM 27.9 °F 21.5 °F 21.6 °F 77% 30.40 in 7.0 mi SSW 5.8 mph - N/A   Clear
9:13 AM 29.8 °F 23.0 °F 21.9 °F 72% 30.40 in 10.0 mi SSW 6.9 mph - N/A   Clear
9:33 AM 31.3 °F 25.6 °F 22.3 °F 69% 30.40 in 10.0 mi SW 5.8 mph - N/A   Clear
9:53 AM 32.0 °F 26.4 °F 23.0 °F 69% 30.40 in 10.0 mi SW 5.8 mph - N/A   Clear
10:13 AM 33.1 °F 26.1 °F 23.9 °F 69% 30.40 in 10.0 mi SSW 8.1 mph - N/A   Clear
10:33 AM 34.7 °F 28.8 °F 24.8 °F 67% 30.40 in 10.0 mi SSW 6.9 mph - N/A   Clear
10:53 AM 36.1 °F 29.9 °F 26.1 °F 67% 30.40 in 10.0 mi SSW 8.1 mph - N/A   Clear
11:13 AM 37.4 °F 29.8 °F 27.1 °F 66% 30.39 in 10.0 mi SSW 11.5 mph - N/A   Clear
11:33 AM 38.3 °F 30.5 °F 27.1 °F 64% 30.39 in 10.0 mi SSW 12.7 mph - N/A   Clear
11:53 AM 39.2 °F 33.6 °F 27.3 °F 62% 30.38 in 10.0 mi SSW 8.1 mph - N/A   Clear
12:13 PM 40.3 °F 33.4 °F 27.5 °F 60% 30.37 in 10.0 mi SSW 11.5 mph - N/A   Clear
12:33 PM 41.0 °F 35.2 °F 27.9 °F 60% 30.37 in 10.0 mi SSW 9.2 mph - N/A   Clear
12:53 PM 42.1 °F 36.6 °F 27.9 °F 57% 30.36 in 10.0 mi SW 9.2 mph - N/A   Clear
1:13 PM 42.8 °F 38.0 °F 27.7 °F 55% 30.36 in 10.0 mi SSW 8.1 mph - N/A   Clear
1:33 PM 42.8 °F 40.1 °F 27.3 °F 54% 30.36 in 10.0 mi SSW 4.6 mph - N/A   Clear
1:53 PM 43.7 °F 39.7 °F 27.5 °F 53% 30.35 in 10.0 mi SW 6.9 mph - N/A   Clear
2:13 PM 44.2 °F 40.3 °F 27.3 °F 51% 30.35 in 10.0 mi SSW 6.9 mph - N/A   Clear
2:33 PM 44.6 °F 40.2 °F 27.9 °F 52% 30.34 in 10.0 mi SW 8.1 mph - N/A   Clear
2:53 PM 44.6 °F 40.2 °F 27.9 °F 52% 30.34 in 10.0 mi SSW 8.1 mph - N/A   Clear
3:13 PM 44.8 °F 40.4 °F 28.4 °F 53% 30.34 in 10.0 mi SSW 8.1 mph - N/A   Clear
3:33 PM 44.4 °F 40.0 °F 29.1 °F 55% 30.34 in 10.0 mi SSW 8.1 mph - N/A   Clear
3:53 PM 43.7 °F 40.3 °F 27.9 °F 54% 30.34 in 10.0 mi South 5.8 mph - N/A   Clear
4:13 PM 43.0 °F 38.2 °F 28.4 °F 56% 30.34 in 10.0 mi South 8.1 mph - N/A   Clear
4:33 PM 40.6 °F 36.0 °F 28.6 °F 62% 30.36 in 10.0 mi SSW 6.9 mph - N/A   Clear
4:53 PM 39.2 °F 35.0 °F 27.9 °F 64% 30.36 in 10.0 mi SSW 5.8 mph - N/A   Clear
5:13 PM 38.1 °F 32.9 °F 27.5 °F 66% 30.37 in 10.0 mi SSW 6.9 mph - N/A   Clear
5:33 PM 36.0 °F 32.1 °F 27.1 °F 70% 30.37 in 10.0 mi SSW 4.6 mph - N/A   Clear
6:13 PM 35.1 °F 29.3 °F 27.1 °F 73% 30.36 in 10.0 mi South 6.9 mph - N/A   Clear
6:33 PM 35.8 °F 30.9 °F 27.5 °F 72% 30.36 in 10.0 mi SSW 5.8 mph - N/A   Clear
6:53 PM 34.0 °F 28.8 °F 28.2 °F 79% 30.37 in 10.0 mi SSW 5.8 mph - N/A   Clear
7:13 PM 36.9 °F 30.7 °F 27.5 °F 69% 30.36 in 10.0 mi South 8.1 mph - N/A   Scattered Clouds
7:33 PM 36.7 °F 31.2 °F 27.5 °F 69% 30.36 in 10.0 mi South 6.9 mph - N/A   Scattered Clouds
7:53 PM 35.6 °F 29.2 °F 27.5 °F 72% 30.37 in 10.0 mi South 8.1 mph - N/A   Clear
8:13 PM 35.6 °F 29.2 °F 27.5 °F 72% 30.37 in 10.0 mi South 8.1 mph - N/A   Scattered Clouds
8:53 PM 36.5 °F 30.3 °F 27.3 °F 69% 30.37 in 10.0 mi SSW 8.1 mph - N/A   Mostly Cloudy
9:13 PM 36.1 °F 29.9 °F 27.1 °F 70% 30.37 in 10.0 mi SSW 8.1 mph - N/A   Mostly Cloudy
9:33 PM 35.6 °F 28.6 °F 26.6 °F 70% 30.37 in 10.0 mi SSW 9.2 mph - N/A   Mostly Cloudy
9:53 PM 34.2 °F 27.5 °F 26.6 °F 74% 30.38 in 10.0 mi SW 8.1 mph - N/A   Scattered Clouds
10:13 PM 35.1 °F 30.1 °F 27.1 °F 73% 30.38 in 10.0 mi SSW 5.8 mph - N/A   Mostly Cloudy
10:33 PM 34.7 °F 28.8 °F 27.1 °F 74% 30.38 in 10.0 mi SSW 6.9 mph - N/A   Mostly Cloudy
10:53 PM 34.7 °F 28.8 °F 26.6 °F 72% 30.38 in 10.0 mi SSW 6.9 mph - N/A   Scattered Clouds
11:13 PM 34.7 °F 28.8 °F 27.1 °F 74% 30.38 in 10.0 mi SSW 6.9 mph - N/A   Scattered Clouds
11:33 PM 34.7 °F 29.6 °F 27.0 °F 73% 30.38 in 10.0 mi SSW 5.8 mph - N/A   Scattered Clouds
11:53 PM 34.2 °F 30.0 °F 27.1 °F 75% 30.38 in 10.0 mi SSW 4.6 mph - N/A   Scattered Clouds